Satellite: AO-40 Catalog number: 26609 Epoch time: 02040.30165509 Element set: 197 Inclination: 7.0167 deg RA of node: 128.7673 deg Eccentricity: 0.7944406 Arg of perigee: 19.6315 deg Mean anomaly: 358.4356 deg Mean motion: 1.25596763 rev/day Decay rate: -4.71000e-06 rev/day^2 Epoch rev: 588 Checksum: 315